Galesburg, IL

2:48 AM CDT on May 29, 2017 (GMT -0500)
Galesburg Municipal

Weather History for KGBG - December, 2012

Change the Weather History Date:

Saturday, December 22, 2012

  Actual Average Record
Temperature  
Mean Temperature 19 °F -  
Max Temperature 32 °F 29 °F 59 °F (1957)
Min Temperature 6 °F 16 °F -21 °F (1989)
Degree Days  
Heating Degree Days 46    
Moisture  
Dew Point 14 °F    
Average Humidity 82    
Maximum Humidity 100    
Minimum Humidity 57    
Precipitation  
Precipitation 0.00 in - - ()
Sea Level Pressure  
Sea Level Pressure 30.10 in    
Wind  
Wind Speed 4 mph (SSE)    
Max Wind Speed 8 mph    
Max Gust Speed -    
Visibility 10 miles    
Events      
Averages and records for this station are not official NWS values.
T = Trace of Precipitation, MM = Missing Value Source: NWS Daily Summary

Daily Weather History Graph

Daily Weather History Graph

Search for Another Location

Airport or City:

Trip Planner

Search our weather history database for the weather conditions in past years. The results will help you decide how hot, cold, wet, or windy it might be!

Date:

Astronomy

Dec. 22, 2012 Rise Set
Actual Time 7:23 AM CST 4:37 PM CST
Civil Twilight 6:52 AM CST 5:08 PM CST
Nautical Twilight 6:17 AM CST 5:43 PM CST
Astronomical Twilight 5:44 AM CST 6:16 PM CST
Moon 12:56 PM CST (12/22) 2:07 AM CST (12/22)
Length of Visible Light 10h 16m
Length of Day
9h 13m
Waxing Gibbous, 74% of the Moon is Illuminated
Dec 22
Waxing Gibbous
Dec 28
Full
Jan 4
Last Quarter
Jan 11
New
Jan 18
First Quarter

Hourly Weather History & Observations

Time (CST) Temp. Windchill Dew Point Humidity Pressure Visibility Wind Dir Wind Speed Gust Speed Precip Events Conditions
12:15 AM 10.8 °F 1.2 °F 8.4 °F 90% 30.24 in 10.0 mi WNW 5.8 mph - N/A   Clear
12:35 AM 9.9 °F 1.6 °F 7.7 °F 91% 30.24 in 10.0 mi NW 4.6 mph - N/A   Clear
12:55 AM 9.3 °F 1.0 °F 7.2 °F 91% 30.24 in 10.0 mi WNW 4.6 mph - N/A   Clear
1:15 AM 9.1 °F 0.8 °F 7.0 °F 91% 30.24 in 10.0 mi WNW 4.6 mph - N/A   Clear
1:35 AM 8.8 °F -1.1 °F 7.0 °F 92% 30.25 in 10.0 mi West 5.8 mph - N/A   Clear
1:55 AM 9.0 °F 0.6 °F 6.8 °F 91% 30.24 in 10.0 mi WNW 4.6 mph - N/A   Clear
2:15 AM 9.0 °F 0.6 °F 7.0 °F 92% 30.25 in 10.0 mi West 4.6 mph - N/A   Clear
2:35 AM 8.4 °F -1.6 °F 6.4 °F 92% 30.26 in 10.0 mi West 5.8 mph - N/A   Clear
2:55 AM 9.1 °F -1.9 °F 7.2 °F 92% 30.25 in 10.0 mi West 6.9 mph - N/A   Clear
3:15 AM 9.7 °F 1.4 °F 7.7 °F 92% 30.25 in 10.0 mi West 4.6 mph - N/A   Clear
3:35 AM 9.5 °F - 7.5 °F 92% 30.24 in 10.0 mi Calm Calm - N/A   Clear
3:55 AM 9.0 °F - 7.0 °F 92% 30.23 in 10.0 mi Calm Calm - N/A   Clear
4:15 AM 8.1 °F - 6.3 °F 92% 30.23 in 10.0 mi Calm Calm - N/A   Clear
4:35 AM 7.3 °F - 5.4 °F 92% 30.22 in 10.0 mi Calm Calm - N/A   Clear
4:55 AM 7.5 °F - 5.7 °F 92% 30.22 in 10.0 mi Calm Calm - N/A   Clear
5:15 AM 8.4 °F - 6.6 °F 92% 30.23 in 10.0 mi Calm Calm - N/A   Clear
5:35 AM 8.1 °F - 6.3 °F 92% 30.22 in 7.0 mi Calm Calm - N/A   Clear
5:55 AM 6.8 °F - 5.0 °F 92% 30.22 in 7.0 mi Calm Calm - N/A   Clear
6:15 AM 7.3 °F - 5.4 °F 92% 30.21 in 7.0 mi Calm Calm - N/A   Clear
6:35 AM 7.7 °F - 5.7 °F 92% 30.21 in 10.0 mi Calm Calm - N/A   Clear
6:55 AM 8.4 °F 1.8 °F 6.1 °F 90% 30.22 in 10.0 mi South 3.5 mph - N/A   Clear
7:15 AM 8.6 °F 2.0 °F 6.6 °F 92% 30.22 in 10.0 mi South 3.5 mph - N/A   Clear
7:35 AM 8.4 °F 1.8 °F 6.3 °F 91% 30.22 in 10.0 mi South 3.5 mph - N/A   Clear
7:55 AM 9.3 °F - 7.3 °F 92% 30.21 in 10.0 mi Calm Calm - N/A   Clear
8:15 AM 10.4 °F - 8.4 °F 92% 30.21 in 10.0 mi Calm Calm - N/A   Clear
8:35 AM 12.0 °F - 9.7 °F 90% 30.21 in 10.0 mi Calm Calm - N/A   Clear
8:55 AM 13.1 °F 5.4 °F 10.0 °F 88% 30.21 in 10.0 mi SSE 4.6 mph - N/A   Clear
9:15 AM 15.4 °F 8.1 °F 11.5 °F 84% 30.21 in 10.0 mi SE 4.6 mph - N/A   Clear
9:35 AM 18.1 °F 10.0 °F 12.7 °F 79% 30.20 in 10.0 mi SE 5.8 mph - N/A   Clear
9:55 AM 20.5 °F 11.7 °F 13.5 °F 74% 30.19 in 10.0 mi SSE 6.9 mph - N/A   Clear
10:15 AM 20.8 °F 12.1 °F 13.6 °F 74% 30.18 in 10.0 mi SE 6.9 mph - N/A   Clear
10:35 AM 21.2 °F 11.7 °F 14.0 °F 74% 30.18 in 10.0 mi SSE 8.1 mph - N/A   Clear
10:55 AM 22.3 °F 13.0 °F 14.2 °F 71% 30.17 in 10.0 mi SSE 8.1 mph - N/A   Clear
11:15 AM 23.9 °F 15.8 °F 14.9 °F 69% 30.16 in 10.0 mi SE 6.9 mph - N/A   Clear
11:35 AM 25.5 °F 18.7 °F 15.8 °F 67% 30.14 in 10.0 mi SE 5.8 mph - N/A   Clear
11:55 AM 27.3 °F 19.9 °F 16.3 °F 63% 30.13 in 10.0 mi SSE 6.9 mph - N/A   Clear
12:15 PM 28.2 °F 22.0 °F 18.5 °F 67% 30.10 in 10.0 mi ESE 5.8 mph - N/A   Clear
12:35 PM 29.3 °F 23.2 °F 18.0 °F 63% 30.09 in 10.0 mi SE 5.8 mph - N/A   Clear
12:55 PM 30.0 °F 25.2 °F 19.0 °F 64% 30.08 in 10.0 mi SE 4.6 mph - N/A   Clear
1:15 PM 31.1 °F 24.5 °F 17.4 °F 57% 30.07 in 10.0 mi SE 6.9 mph - N/A   Clear
1:35 PM 32.0 °F 24.8 °F 18.7 °F 58% 30.05 in 10.0 mi SE 8.1 mph - N/A   Clear
1:55 PM 32.0 °F 24.8 °F 18.9 °F 58% 30.04 in 10.0 mi SE 8.1 mph - N/A   Clear
2:15 PM 32.2 °F 25.8 °F 18.3 °F 57% 30.03 in 10.0 mi SE 6.9 mph - N/A   Clear
2:35 PM 32.0 °F 25.6 °F 19.4 °F 60% 30.01 in 10.0 mi SE 6.9 mph - N/A   Clear
2:55 PM 32.0 °F 25.6 °F 19.6 °F 60% 30.00 in 10.0 mi ESE 6.9 mph - N/A   Clear
3:15 PM 31.8 °F 24.6 °F 18.5 °F 58% 30.00 in 10.0 mi SE 8.1 mph - N/A   Clear
3:35 PM 32.0 °F 25.6 °F 18.3 °F 57% 30.00 in 10.0 mi SE 6.9 mph - N/A   Clear
3:55 PM 31.5 °F 25.8 °F 19.0 °F 60% 29.99 in 10.0 mi SE 5.8 mph - N/A   Clear
4:15 PM 30.9 °F 23.5 °F 19.4 °F 62% 29.99 in 10.0 mi SE 8.1 mph - N/A   Clear
4:35 PM 30.2 °F 22.6 °F 19.8 °F 65% 29.99 in 10.0 mi SE 8.1 mph - N/A   Clear
4:55 PM 29.3 °F 23.2 °F 20.3 °F 69% 29.98 in 10.0 mi ESE 5.8 mph - N/A   Clear
5:15 PM 27.5 °F 22.2 °F 21.0 °F 77% 29.98 in 10.0 mi SE 4.6 mph - N/A   Clear
5:35 PM 26.6 °F 20.0 °F 21.0 °F 79% 29.97 in 10.0 mi SE 5.8 mph - N/A   Clear
5:55 PM 26.4 °F 20.9 °F 21.2 °F 81% 29.97 in 10.0 mi ESE 4.6 mph - N/A   Clear
6:15 PM 26.1 °F 21.9 °F 21.4 °F 82% 29.97 in 10.0 mi SE 3.5 mph - N/A   Clear
6:35 PM 25.5 °F 21.3 °F 21.4 °F 84% 29.97 in 10.0 mi ESE 3.5 mph - N/A   Clear
6:55 PM 25.2 °F 19.5 °F 21.6 °F 86% 29.98 in 10.0 mi ESE 4.6 mph - N/A   Clear
7:15 PM 24.6 °F 17.7 °F 21.2 °F 87% 29.97 in 10.0 mi SE 5.8 mph - N/A   Clear
7:35 PM 24.4 °F 18.6 °F 20.8 °F 86% 29.96 in 10.0 mi SE 4.6 mph - N/A   Clear
7:55 PM 24.1 °F 17.0 °F 21.2 °F 89% 29.95 in 10.0 mi SE 5.8 mph - N/A   Clear
8:15 PM 25.7 °F 20.1 °F 22.1 °F 86% 29.95 in 10.0 mi SE 4.6 mph - N/A   Clear
8:35 PM 24.1 °F 19.7 °F 21.2 °F 89% 29.94 in 10.0 mi SE 3.5 mph - N/A   Clear
8:55 PM 24.4 °F 18.6 °F 21.6 °F 89% 29.94 in 10.0 mi SSE 4.6 mph - N/A   Clear
9:15 PM 25.2 °F 19.5 °F 22.1 °F 88% 29.94 in 10.0 mi SSE 4.6 mph - N/A   Clear
9:35 PM 23.9 °F - 21.4 °F 90% 29.94 in 10.0 mi Calm Calm - N/A   Clear
9:55 PM 21.2 °F - 19.4 °F 93% 29.94 in 10.0 mi Calm Calm - N/A   Clear
10:15 PM 21.7 °F - 20.7 °F 96% 29.94 in 10.0 mi Calm Calm - N/A   Clear
10:35 PM 19.2 °F - 18.9 °F 98% 29.93 in 7.0 mi Calm Calm - N/A   Clear
10:55 PM 19.0 °F 13.9 °F 18.0 °F 96% 29.93 in 10.0 mi SE 3.5 mph - N/A   Clear
11:15 PM 17.4 °F - 16.0 °F 94% 29.93 in 7.0 mi Calm Calm - N/A   Clear
11:35 PM 18.7 °F - 18.7 °F 100% 29.93 in 7.0 mi Calm Calm - N/A   Clear
11:55 PM 18.1 °F - 16.9 °F 95% 29.92 in 5.0 mi Calm Calm - N/A   Clear